Time,TemperatureF,DewpointF,PressureIn,WindDirection,WindDirectionDegrees,WindSpeedMPH,WindSpeedGustMPH,Humidity,HourlyPrecipIn,Conditions,Clouds,dailyrainin,SolarRadiationWatts/m^2,SoftwareType,DateUTC
2013-11-29 00:09:00,48.3,47.0,30.30,WSW,252,6.0,-999.0,94,-99.99,,,0.01,0,weatherlink.com 1.10,2013-11-29 00:09:00,
2013-11-29 00:24:00,48.6,46.0,30.29,WSW,237,7.0,-999.0,91,-99.99,,,0.01,0,weatherlink.com 1.10,2013-11-29 00:24:00,
2013-11-29 00:39:00,48.8,46.0,30.29,West,261,6.0,-999.0,89,-99.99,,,0.02,0,weatherlink.com 1.10,2013-11-29 00:39:00,
2013-11-29 00:54:00,48.3,46.0,30.27,WSW,244,4.0,-999.0,92,-99.99,,,0.03,0,weatherlink.com 1.10,2013-11-29 00:54:00,
2013-11-29 01:09:00,48.4,46.0,30.26,SW,217,9.0,-999.0,92,-99.99,,,0.03,0,weatherlink.com 1.10,2013-11-29 01:09:00,
2013-11-29 01:24:00,48.4,47.0,30.26,WSW,243,9.0,-999.0,93,-99.99,,,0.08,0,weatherlink.com 1.10,2013-11-29 01:24:00,
2013-11-29 01:39:00,47.7,46.0,30.25,WSW,243,6.0,-999.0,94,-99.99,,,0.09,0,weatherlink.com 1.10,2013-11-29 01:39:00,
2013-11-29 01:54:00,47.5,46.0,30.24,WSW,239,3.0,-999.0,94,-99.99,,,0.00,0,weatherlink.com 1.10,2013-11-29 01:54:00,
2013-11-29 02:09:00,47.8,46.0,30.23,West,260,5.0,-999.0,92,-99.99,,,0.00,0,weatherlink.com 1.10,2013-11-29 02:09:00,
2013-11-29 02:24:00,48.4,46.0,30.21,SW,216,11.0,-999.0,90,-99.99,,,0.00,0,weatherlink.com 1.10,2013-11-29 02:24:00,
2013-11-29 02:39:00,48.7,46.0,30.20,WSW,238,10.0,-999.0,90,-99.99,,,0.00,0,weatherlink.com 1.10,2013-11-29 02:39:00,
2013-11-29 02:54:00,48.6,46.0,30.19,SW,224,13.0,-999.0,91,-99.99,,,0.00,0,weatherlink.com 1.10,2013-11-29 02:54:00,
2013-11-29 03:09:00,48.9,46.0,30.17,WSW,238,5.0,-999.0,90,-99.99,,,0.00,0,weatherlink.com 1.10,2013-11-29 03:09:00,
2013-11-29 03:24:00,48.9,46.0,30.16,WSW,250,5.0,-999.0,90,-99.99,,,0.00,0,weatherlink.com 1.10,2013-11-29 03:24:00,
2013-11-29 03:39:00,49.2,47.0,30.14,West,271,15.0,-999.0,90,-99.99,,,0.00,0,weatherlink.com 1.10,2013-11-29 03:39:00,
2013-11-29 03:54:00,50.1,47.0,30.13,SW,231,9.0,-999.0,88,-99.99,,,0.00,0,weatherlink.com 1.10,2013-11-29 03:54:00,
2013-11-29 04:09:00,50.1,47.0,30.12,WSW,255,13.0,-999.0,88,-99.99,,,0.01,0,weatherlink.com 1.10,2013-11-29 04:09:00,
2013-11-29 04:24:00,49.5,47.0,30.11,WSW,249,8.0,-999.0,91,-99.99,,,0.02,0,weatherlink.com 1.10,2013-11-29 04:24:00,
2013-11-29 04:39:00,49.5,48.0,30.12,SW,229,22.0,-999.0,93,-99.99,,,0.05,0,weatherlink.com 1.10,2013-11-29 04:39:00,
2013-11-29 04:54:00,47.8,46.0,30.12,West,281,21.0,-999.0,92,-99.99,,,0.06,0,weatherlink.com 1.10,2013-11-29 04:54:00,
2013-11-29 05:09:00,46.7,44.0,30.12,West,278,24.0,-999.0,91,-99.99,,,0.06,0,weatherlink.com 1.10,2013-11-29 05:09:00,
2013-11-29 05:24:00,46.2,44.0,30.11,WNW,291,21.0,-999.0,90,-99.99,,,0.06,0,weatherlink.com 1.10,2013-11-29 05:24:00,
2013-11-29 05:39:00,46.2,44.0,30.12,West,267,21.0,-999.0,92,-99.99,,,0.06,0,weatherlink.com 1.10,2013-11-29 05:39:00,
2013-11-29 05:54:00,45.9,44.0,30.12,WNW,288,23.0,-999.0,91,-99.99,,,0.06,0,weatherlink.com 1.10,2013-11-29 05:54:00,
2013-11-29 06:10:00,44.7,42.0,30.13,WNW,292,19.0,-999.0,91,-99.99,,,0.06,0,weatherlink.com 1.10,2013-11-29 06:10:00,
2013-11-29 06:25:00,44.6,42.0,30.12,WNW,296,12.0,-999.0,91,-99.99,,,0.06,0,weatherlink.com 1.10,2013-11-29 06:25:00,
2013-11-29 06:40:00,44.5,42.0,30.13,WNW,294,17.0,-999.0,91,-99.99,,,0.07,0,weatherlink.com 1.10,2013-11-29 06:40:00,
2013-11-29 06:55:00,43.4,41.0,30.13,WNW,301,21.0,-999.0,91,-99.99,,,0.07,0,weatherlink.com 1.10,2013-11-29 06:55:00,
2013-11-29 07:10:00,44.0,41.0,30.13,WNW,290,17.0,-999.0,88,-99.99,,,0.07,0,weatherlink.com 1.10,2013-11-29 07:10:00,
2013-11-29 07:25:00,43.3,39.0,30.14,WNW,289,11.0,-999.0,85,-99.99,,,0.07,0,weatherlink.com 1.10,2013-11-29 07:25:00,
2013-11-29 07:40:00,42.7,39.0,30.15,WNW,302,13.0,-999.0,87,-99.99,,,0.07,0,weatherlink.com 1.10,2013-11-29 07:40:00,
2013-11-29 07:55:00,42.5,39.0,30.14,WNW,293,13.0,-999.0,88,-99.99,,,0.07,0,weatherlink.com 1.10,2013-11-29 07:55:00,
2013-11-29 08:10:00,43.0,40.0,30.15,WNW,291,20.0,-999.0,90,-99.99,,,0.07,0,weatherlink.com 1.10,2013-11-29 08:10:00,
2013-11-29 08:25:00,43.1,40.0,30.14,WNW,288,17.0,-999.0,89,-99.99,,,0.07,0,weatherlink.com 1.10,2013-11-29 08:25:00,
2013-11-29 08:40:00,43.1,40.0,30.14,WSW,252,10.0,-999.0,90,-99.99,,,0.07,5,weatherlink.com 1.10,2013-11-29 08:40:00,
2013-11-29 08:55:00,43.0,40.0,30.15,West,278,15.0,-999.0,90,-99.99,,,0.08,11,weatherlink.com 1.10,2013-11-29 08:55:00,
2013-11-29 09:10:00,42.7,40.0,30.15,West,278,17.0,-999.0,91,-99.99,,,0.08,46,weatherlink.com 1.10,2013-11-29 09:10:00,
2013-11-29 09:25:00,43.6,41.0,30.16,WNW,302,15.0,-999.0,90,-99.99,,,0.09,12,weatherlink.com 1.10,2013-11-29 09:25:00,
2013-11-29 09:40:00,42.7,40.0,30.15,WNW,285,17.0,-999.0,91,-99.99,,,0.09,47,weatherlink.com 1.10,2013-11-29 09:40:00,
2013-11-29 09:55:00,42.7,41.0,30.14,West,281,14.0,-999.0,92,-99.99,,,0.09,56,weatherlink.com 1.10,2013-11-29 09:55:00,
2013-11-29 10:10:00,43.0,41.0,30.14,West,270,15.0,-999.0,91,-99.99,,,0.09,58,weatherlink.com 1.10,2013-11-29 10:10:00,
2013-11-29 10:25:00,43.6,41.0,30.14,WNW,298,21.0,-999.0,90,-99.99,,,0.09,74,weatherlink.com 1.10,2013-11-29 10:25:00,
2013-11-29 10:40:00,44.4,41.0,30.14,WNW,293,9.0,-999.0,89,-99.99,,,0.09,63,weatherlink.com 1.10,2013-11-29 10:40:00,
2013-11-29 10:55:00,44.5,41.0,30.14,WNW,298,19.0,-999.0,87,-99.99,,,0.09,51,weatherlink.com 1.10,2013-11-29 10:55:00,
2013-11-29 11:10:00,44.8,41.0,30.14,WNW,302,8.0,-999.0,86,-99.99,,,0.09,74,weatherlink.com 1.10,2013-11-29 11:10:00,
2013-11-29 11:25:00,44.5,41.0,30.14,WNW,285,30.0,-999.0,87,-99.99,,,0.11,44,weatherlink.com 1.10,2013-11-29 11:25:00,
2013-11-29 11:40:00,43.4,41.0,30.13,WNW,298,12.0,-999.0,91,-99.99,,,0.11,76,weatherlink.com 1.10,2013-11-29 11:40:00,
2013-11-29 11:55:00,43.8,41.0,30.12,West,277,12.0,-999.0,91,-99.99,,,0.11,81,weatherlink.com 1.10,2013-11-29 11:55:00,
2013-11-29 12:10:00,44.1,41.0,30.12,WNW,298,14.0,-999.0,89,-99.99,,,0.11,62,weatherlink.com 1.10,2013-11-29 12:10:00,
2013-11-29 12:25:00,44.2,41.0,30.12,WNW,288,12.0,-999.0,88,-99.99,,,0.11,65,weatherlink.com 1.10,2013-11-29 12:25:00,
2013-11-29 12:40:00,43.8,41.0,30.11,West,277,15.0,-999.0,89,-99.99,,,0.11,91,weatherlink.com 1.10,2013-11-29 12:40:00,
2013-11-29 12:55:00,44.0,41.0,30.11,WNW,287,20.0,-999.0,89,-99.99,,,0.11,100,weatherlink.com 1.10,2013-11-29 12:55:00,
2013-11-29 13:10:00,44.8,41.0,30.10,NW,309,20.0,-999.0,87,-99.99,,,0.11,54,weatherlink.com 1.10,2013-11-29 13:10:00,
2013-11-29 13:25:00,45.3,41.0,30.11,WNW,294,22.0,-999.0,84,-99.99,,,0.11,53,weatherlink.com 1.10,2013-11-29 13:25:00,
2013-11-29 13:40:00,45.6,42.0,30.11,NW,310,6.0,-999.0,86,-99.99,,,0.11,74,weatherlink.com 1.10,2013-11-29 13:40:00,
2013-11-29 13:55:00,44.1,41.0,30.12,NNW,340,13.0,-999.0,88,-99.99,,,0.13,47,weatherlink.com 1.10,2013-11-29 13:55:00,
2013-11-29 14:10:00,43.8,41.0,30.12,WNW,298,12.0,-999.0,89,-99.99,,,0.13,47,weatherlink.com 1.10,2013-11-29 14:10:00,
2013-11-29 14:25:00,44.3,40.0,30.11,WNW,302,6.0,-999.0,85,-99.99,,,0.13,30,weatherlink.com 1.10,2013-11-29 14:25:00,
2013-11-29 14:40:00,44.1,40.0,30.12,WSW,257,9.0,-999.0,85,-99.99,,,0.13,33,weatherlink.com 1.10,2013-11-29 14:40:00,
2013-11-29 14:55:00,43.9,40.0,30.12,WNW,301,11.0,-999.0,86,-99.99,,,0.13,42,weatherlink.com 1.10,2013-11-29 14:55:00,
2013-11-29 15:10:00,44.1,40.0,30.13,NNW,329,6.0,-999.0,86,-99.99,,,0.13,11,weatherlink.com 1.10,2013-11-29 15:10:00,
2013-11-29 15:25:00,44.4,40.0,30.13,WNW,284,17.0,-999.0,84,-99.99,,,0.13,9,weatherlink.com 1.10,2013-11-29 15:25:00,
2013-11-29 15:40:00,43.7,39.0,30.14,WNW,291,17.0,-999.0,83,-99.99,,,0.13,0,weatherlink.com 1.10,2013-11-29 15:40:00,
2013-11-29 15:55:00,43.9,38.0,30.14,WNW,297,16.0,-999.0,81,-99.99,,,0.13,0,weatherlink.com 1.10,2013-11-29 15:55:00,
2013-11-29 16:10:00,43.4,38.0,30.14,WNW,292,12.0,-999.0,80,-99.99,,,0.13,0,weatherlink.com 1.10,2013-11-29 16:10:00,
2013-11-29 16:25:00,43.2,39.0,30.14,NW,304,10.0,-999.0,84,-99.99,,,0.13,0,weatherlink.com 1.10,2013-11-29 16:25:00,
2013-11-29 16:40:00,43.4,39.0,30.13,WNW,282,12.0,-999.0,85,-99.99,,,0.13,0,weatherlink.com 1.10,2013-11-29 16:40:00,
2013-11-29 16:55:00,43.8,40.0,30.14,NW,309,12.0,-999.0,85,-99.99,,,0.13,0,weatherlink.com 1.10,2013-11-29 16:55:00,
2013-11-29 17:10:00,44.2,40.0,30.14,WNW,298,8.0,-999.0,85,-99.99,,,0.13,0,weatherlink.com 1.10,2013-11-29 17:10:00,
2013-11-29 17:25:00,43.8,39.0,30.15,WNW,302,10.0,-999.0,84,-99.99,,,0.13,0,weatherlink.com 1.10,2013-11-29 17:25:00,
2013-11-29 17:40:00,43.9,39.0,30.15,NW,308,10.0,-999.0,84,-99.99,,,0.13,0,weatherlink.com 1.10,2013-11-29 17:40:00,
2013-11-29 17:55:00,43.7,39.0,30.16,WNW,295,11.0,-999.0,84,-99.99,,,0.13,0,weatherlink.com 1.10,2013-11-29 17:55:00,
2013-11-29 18:10:00,44.2,40.0,30.17,West,279,10.0,-999.0,84,-99.99,,,0.13,0,weatherlink.com 1.10,2013-11-29 18:10:00,
2013-11-29 18:25:00,44.8,40.0,30.19,NW,313,5.0,-999.0,83,-99.99,,,0.13,0,weatherlink.com 1.10,2013-11-29 18:25:00,
2013-11-29 18:40:00,44.2,40.0,30.19,WNW,298,5.0,-999.0,84,-99.99,,,0.13,0,weatherlink.com 1.10,2013-11-29 18:40:00,
2013-11-29 18:55:00,43.5,39.0,30.19,West,260,6.0,-999.0,83,-99.99,,,0.13,0,weatherlink.com 1.10,2013-11-29 18:55:00,
2013-11-29 19:10:00,43.2,39.0,30.20,SW,236,5.0,-999.0,84,-99.99,,,0.13,0,weatherlink.com 1.10,2013-11-29 19:10:00,
2013-11-29 19:25:00,43.3,39.0,30.20,WNW,284,7.0,-999.0,85,-99.99,,,0.13,0,weatherlink.com 1.10,2013-11-29 19:25:00,
2013-11-29 19:40:00,43.6,39.0,30.19,WNW,296,15.0,-999.0,85,-99.99,,,0.13,0,weatherlink.com 1.10,2013-11-29 19:40:00,
2013-11-29 19:55:00,43.7,39.0,30.19,WNW,291,9.0,-999.0,83,-99.99,,,0.13,0,weatherlink.com 1.10,2013-11-29 19:55:00,
2013-11-29 20:10:00,43.5,38.0,30.20,WNW,296,5.0,-999.0,82,-99.99,,,0.13,0,weatherlink.com 1.10,2013-11-29 20:10:00,
2013-11-29 20:25:00,43.5,37.0,30.21,NW,309,10.0,-999.0,79,-99.99,,,0.13,0,weatherlink.com 1.10,2013-11-29 20:25:00,
2013-11-29 20:41:00,44.3,38.0,30.20,West,275,12.0,-999.0,77,-99.99,,,0.13,0,weatherlink.com 1.10,2013-11-29 20:41:00,
2013-11-29 20:56:00,44.1,38.0,30.21,WNW,292,7.0,-999.0,78,-99.99,,,0.13,0,weatherlink.com 1.10,2013-11-29 20:56:00,
2013-11-29 21:11:00,43.3,38.0,30.21,WNW,289,5.0,-999.0,82,-99.99,,,0.13,0,weatherlink.com 1.10,2013-11-29 21:11:00,
2013-11-29 21:26:00,43.0,38.0,30.21,NW,315,7.0,-999.0,82,-99.99,,,0.13,0,weatherlink.com 1.10,2013-11-29 21:26:00,
2013-11-29 21:41:00,43.6,38.0,30.21,WNW,291,19.0,-999.0,81,-99.99,,,0.13,0,weatherlink.com 1.10,2013-11-29 21:41:00,
2013-11-29 21:56:00,43.5,38.0,30.23,WSW,242,4.0,-999.0,82,-99.99,,,0.13,0,weatherlink.com 1.10,2013-11-29 21:56:00,
2013-11-29 22:11:00,43.0,38.0,30.24,WNW,300,8.0,-999.0,83,-99.99,,,0.13,0,weatherlink.com 1.10,2013-11-29 22:11:00,
2013-11-29 22:26:00,43.3,39.0,30.22,NNW,335,14.0,-999.0,83,-99.99,,,0.13,0,weatherlink.com 1.10,2013-11-29 22:26:00,
2013-11-29 22:41:00,43.4,38.0,30.23,WNW,289,11.0,-999.0,82,-99.99,,,0.13,0,weatherlink.com 1.10,2013-11-29 22:41:00,
2013-11-29 22:56:00,43.1,38.0,30.24,WNW,302,8.0,-999.0,83,-99.99,,,0.13,0,weatherlink.com 1.10,2013-11-29 22:56:00,
2013-11-29 23:11:00,43.2,39.0,30.25,West,281,15.0,-999.0,84,-99.99,,,0.13,0,weatherlink.com 1.10,2013-11-29 23:11:00,
2013-11-29 23:26:00,43.8,39.0,30.24,NW,314,11.0,-999.0,83,-99.99,,,0.13,0,weatherlink.com 1.10,2013-11-29 23:26:00,
2013-11-29 23:41:00,43.8,39.0,30.26,NW,311,8.0,-999.0,83,-99.99,,,0.13,0,weatherlink.com 1.10,2013-11-29 23:41:00,
2013-11-29 23:56:00,43.6,39.0,30.25,NW,311,15.0,-999.0,83,-99.99,,,0.13,0,weatherlink.com 1.10,2013-11-29 23:56:00,